Location: Ch�risy
(50.2331°N, 2.9131°E)
Time: 03:19:22
(UTC+00:00)

FengYun 1-2 T - Pass Details

Date: 17 January 2021
Orbit: 847 x 881 km, 98.7° (Epoch: 24 February)

Event Time Altitude Azimuth Distance (km) Brightness Sun altitude
Rises 17:18:36 0° 164° (SSE) 3,417 7.4 -9.6°
Reaches altitude 10° 17:20:57 10° 164° (SSE) 2,489 6.7 -9.9°
Maximum altitude 17:26:30 87° 255° (WSW) 874 4.3 -10.8°
Drops below altitude 10° 17:32:09 10° 344° (NNW) 2,530 6.7 -11.6°
Sets 17:34:33 0° 345° (NNW) 3,477 7.4 -12.0°
